Year,Month,Day,Hour,Minute,Value (Times are PST for temperature in C)
2016,02,29,00,00,3.00
2016,02,29,00,01,3.00
2016,02,29,00,02,2.90
2016,02,29,00,03,2.90
2016,02,29,00,04,2.90
2016,02,29,00,05,2.90
2016,02,29,00,06,2.90
2016,02,29,00,07,2.90
2016,02,29,00,08,2.80
2016,02,29,00,09,2.70
2016,02,29,00,10,2.70
2016,02,29,00,11,2.60
2016,02,29,00,12,2.60
2016,02,29,00,13,2.60
2016,02,29,00,14,2.60
2016,02,29,00,15,2.60
2016,02,29,00,16,2.60
2016,02,29,00,17,2.60
2016,02,29,00,18,2.60
2016,02,29,00,19,2.60
2016,02,29,00,20,2.60
2016,02,29,00,21,2.70
2016,02,29,00,22,2.70
2016,02,29,00,23,2.70
2016,02,29,00,24,2.70
2016,02,29,00,25,2.60
2016,02,29,00,26,2.60
2016,02,29,00,27,2.60
2016,02,29,00,28,2.60
2016,02,29,00,29,2.60
2016,02,29,00,30,2.60
2016,02,29,00,31,2.60
2016,02,29,00,32,2.70
2016,02,29,00,33,2.70
2016,02,29,00,34,2.70
2016,02,29,00,35,2.80
2016,02,29,00,36,2.80
2016,02,29,00,37,2.80
2016,02,29,00,38,2.80
2016,02,29,00,39,2.90
2016,02,29,00,40,2.90
2016,02,29,00,41,2.90
2016,02,29,00,42,2.90
2016,02,29,00,43,3.00
2016,02,29,00,44,3.00
2016,02,29,00,45,3.00
2016,02,29,00,46,3.00
2016,02,29,00,47,3.10
2016,02,29,00,48,3.10
2016,02,29,00,49,3.10
2016,02,29,00,50,3.20
2016,02,29,00,51,3.20
2016,02,29,00,52,3.20
2016,02,29,00,53,3.20
2016,02,29,00,54,3.20
2016,02,29,00,55,3.20
2016,02,29,00,56,3.30
2016,02,29,00,57,3.30
2016,02,29,00,58,3.40
2016,02,29,00,59,3.40
2016,02,29,01,00,3.30
2016,02,29,01,01,3.30
2016,02,29,01,02,3.30
2016,02,29,01,03,3.20
2016,02,29,01,04,3.20
2016,02,29,01,05,3.20
2016,02,29,01,06,3.20
2016,02,29,01,07,3.20
2016,02,29,01,08,3.20
2016,02,29,01,09,3.20
2016,02,29,01,10,3.20
2016,02,29,01,11,3.20
2016,02,29,01,12,3.20
2016,02,29,01,13,3.30
2016,02,29,01,14,3.30
2016,02,29,01,15,3.40
2016,02,29,01,16,3.40
2016,02,29,01,17,3.40
2016,02,29,01,18,3.40
2016,02,29,01,19,3.40
2016,02,29,01,20,3.40
2016,02,29,01,21,3.40
2016,02,29,01,22,3.40
2016,02,29,01,23,3.40
2016,02,29,01,24,3.40
2016,02,29,01,25,3.50
2016,02,29,01,26,3.50
2016,02,29,01,27,3.50
2016,02,29,01,28,3.50
2016,02,29,01,29,3.50
2016,02,29,01,30,3.50
2016,02,29,01,31,3.50
2016,02,29,01,32,3.50
2016,02,29,01,33,3.50
2016,02,29,01,34,3.50
2016,02,29,01,35,3.40
2016,02,29,01,36,3.40
2016,02,29,01,37,3.40
2016,02,29,01,38,3.40
2016,02,29,01,39,3.40
2016,02,29,01,40,3.40
2016,02,29,01,41,3.40
2016,02,29,01,42,3.40
2016,02,29,01,43,3.40
2016,02,29,01,44,3.40
2016,02,29,01,45,3.50
2016,02,29,01,46,3.50
2016,02,29,01,47,3.50
2016,02,29,01,48,3.50
2016,02,29,01,49,3.50
2016,02,29,01,50,3.50
2016,02,29,01,51,3.50
2016,02,29,01,52,3.50
2016,02,29,01,53,3.50
2016,02,29,01,54,3.50
2016,02,29,01,55,3.40
2016,02,29,01,56,3.40
2016,02,29,01,57,3.40
2016,02,29,01,58,3.40
2016,02,29,01,59,3.40
2016,02,29,02,00,3.40
2016,02,29,02,01,3.40
2016,02,29,02,02,3.40
2016,02,29,02,03,3.40
2016,02,29,02,04,3.40
2016,02,29,02,05,3.40
2016,02,29,02,06,3.40
2016,02,29,02,07,3.40
2016,02,29,02,08,3.40
2016,02,29,02,09,3.40
2016,02,29,02,10,3.40
2016,02,29,02,11,3.40
2016,02,29,02,12,3.40
2016,02,29,02,13,3.40
2016,02,29,02,14,3.40
2016,02,29,02,15,3.40
2016,02,29,02,16,3.40
2016,02,29,02,17,3.40
2016,02,29,02,18,3.40
2016,02,29,02,19,3.40
2016,02,29,02,20,3.40
2016,02,29,02,21,3.40
2016,02,29,02,22,3.40
2016,02,29,02,23,3.40
2016,02,29,02,24,3.40
2016,02,29,02,25,3.40
2016,02,29,02,26,3.40
2016,02,29,02,27,3.40
2016,02,29,02,28,3.40
2016,02,29,02,29,3.50
2016,02,29,02,30,3.60
2016,02,29,02,31,3.60
2016,02,29,02,32,3.60
2016,02,29,02,33,3.70
2016,02,29,02,34,3.70
2016,02,29,02,35,3.70
2016,02,29,02,36,3.70
2016,02,29,02,37,3.80
2016,02,29,02,38,3.80
2016,02,29,02,39,3.80
2016,02,29,02,40,3.80
2016,02,29,02,41,3.80
2016,02,29,02,42,3.80
2016,02,29,02,43,3.80
2016,02,29,02,44,3.80
2016,02,29,02,45,3.90
2016,02,29,02,46,3.90
2016,02,29,02,47,3.90
2016,02,29,02,48,3.90
2016,02,29,02,49,3.90
2016,02,29,02,50,3.90
2016,02,29,02,51,3.90
2016,02,29,02,52,3.90
2016,02,29,02,53,3.90
2016,02,29,02,54,3.90
2016,02,29,02,55,3.90
2016,02,29,02,56,3.90
2016,02,29,02,57,3.90
2016,02,29,02,58,3.90
2016,02,29,02,59,3.90
2016,02,29,03,00,3.90
2016,02,29,03,01,3.90
2016,02,29,03,02,3.90
2016,02,29,03,03,3.90
2016,02,29,03,04,3.90
2016,02,29,03,05,3.90
2016,02,29,03,06,3.90
2016,02,29,03,07,3.90
2016,02,29,03,08,3.90
2016,02,29,03,09,3.90
2016,02,29,03,10,3.90
2016,02,29,03,11,3.90
2016,02,29,03,12,3.90
2016,02,29,03,13,3.90
2016,02,29,03,14,3.90
2016,02,29,03,15,3.90
2016,02,29,03,16,3.90
2016,02,29,03,17,4.00
2016,02,29,03,18,4.00
2016,02,29,03,19,4.00
2016,02,29,03,20,4.00
2016,02,29,03,21,4.00
2016,02,29,03,22,4.00
2016,02,29,03,23,4.00
2016,02,29,03,24,4.00
2016,02,29,03,25,4.00
2016,02,29,03,26,4.00
2016,02,29,03,27,3.90
2016,02,29,03,28,3.90
2016,02,29,03,29,3.90
2016,02,29,03,30,3.90
2016,02,29,03,31,3.90
2016,02,29,03,32,3.90
2016,02,29,03,33,3.90
2016,02,29,03,34,3.90
2016,02,29,03,35,3.90
2016,02,29,03,36,3.90
2016,02,29,03,37,3.90
2016,02,29,03,38,3.90
2016,02,29,03,39,3.90
2016,02,29,03,40,3.90
2016,02,29,03,41,4.00
2016,02,29,03,42,3.90
2016,02,29,03,43,4.00
2016,02,29,03,44,4.00
2016,02,29,03,45,4.00
2016,02,29,03,46,4.00
2016,02,29,03,47,4.00
2016,02,29,03,48,4.00
2016,02,29,03,49,4.00
2016,02,29,03,50,4.00
2016,02,29,03,51,4.00
2016,02,29,03,52,4.00
2016,02,29,03,53,4.00
2016,02,29,03,54,4.00
2016,02,29,03,55,4.00
2016,02,29,03,56,4.00
2016,02,29,03,57,3.90
2016,02,29,03,58,3.90
2016,02,29,03,59,3.90
2016,02,29,04,00,3.90
2016,02,29,04,01,3.90
2016,02,29,04,02,3.90
2016,02,29,04,03,3.90
2016,02,29,04,04,3.90
2016,02,29,04,05,3.90
2016,02,29,04,06,3.90
2016,02,29,04,07,3.90
2016,02,29,04,08,3.90
2016,02,29,04,09,3.90
2016,02,29,04,10,3.90
2016,02,29,04,11,3.90
2016,02,29,04,12,3.90
2016,02,29,04,13,3.80
2016,02,29,04,14,3.80
2016,02,29,04,15,3.80
2016,02,29,04,16,3.80
2016,02,29,04,17,3.80
2016,02,29,04,18,3.80
2016,02,29,04,19,3.80
2016,02,29,04,20,3.80
2016,02,29,04,21,3.80
2016,02,29,04,22,3.80
2016,02,29,04,23,3.70
2016,02,29,04,24,3.70
2016,02,29,04,25,3.70
2016,02,29,04,26,3.70
2016,02,29,04,27,3.70
2016,02,29,04,28,3.70
2016,02,29,04,29,3.60
2016,02,29,04,30,3.60
2016,02,29,04,31,3.60
2016,02,29,04,32,3.60
2016,02,29,04,33,3.60
2016,02,29,04,34,3.60
2016,02,29,04,35,3.60
2016,02,29,04,36,3.60
2016,02,29,04,37,3.50
2016,02,29,04,38,3.50
2016,02,29,04,39,3.50
2016,02,29,04,40,3.50
2016,02,29,04,41,3.50
2016,02,29,04,42,3.50
2016,02,29,04,43,3.50
2016,02,29,04,44,3.50
2016,02,29,04,45,3.50
2016,02,29,04,46,3.50
2016,02,29,04,47,3.40
2016,02,29,04,48,3.40
2016,02,29,04,49,3.40
2016,02,29,04,50,3.40
2016,02,29,04,51,3.40
2016,02,29,04,52,3.40
2016,02,29,04,53,3.40
2016,02,29,04,54,3.40
2016,02,29,04,55,3.40
2016,02,29,04,56,3.40
2016,02,29,04,57,3.40
2016,02,29,04,58,3.40
2016,02,29,04,59,3.40
2016,02,29,05,00,3.40
2016,02,29,05,01,3.40
2016,02,29,05,02,3.40
2016,02,29,05,03,3.40
2016,02,29,05,04,3.40
2016,02,29,05,05,3.40
2016,02,29,05,06,3.40
2016,02,29,05,07,3.40
2016,02,29,05,08,3.30
2016,02,29,05,09,3.30
2016,02,29,05,10,3.30
2016,02,29,05,11,3.30
2016,02,29,05,12,3.30
2016,02,29,05,13,3.30
2016,02,29,05,14,3.30
2016,02,29,05,15,3.30
2016,02,29,05,16,3.20
2016,02,29,05,17,3.20
2016,02,29,05,18,3.20
2016,02,29,05,19,3.20
2016,02,29,05,20,3.20
2016,02,29,05,21,3.10
2016,02,29,05,22,3.10
2016,02,29,05,23,3.10
2016,02,29,05,24,3.10
2016,02,29,05,25,3.10
2016,02,29,05,26,3.00
2016,02,29,05,27,3.00
2016,02,29,05,28,3.00
2016,02,29,05,29,2.90
2016,02,29,05,30,2.90
2016,02,29,05,31,2.80
2016,02,29,05,32,2.80
2016,02,29,05,33,2.70
2016,02,29,05,34,2.70
2016,02,29,05,35,2.60
2016,02,29,05,36,2.60
2016,02,29,05,37,2.60
2016,02,29,05,38,2.50
2016,02,29,05,39,2.50
2016,02,29,05,40,2.40
2016,02,29,05,41,2.40
2016,02,29,05,42,2.40
2016,02,29,05,43,2.40
2016,02,29,05,44,2.40
2016,02,29,05,45,2.40
2016,02,29,05,46,2.40
2016,02,29,05,47,2.40
2016,02,29,05,48,2.40
2016,02,29,05,49,2.40
2016,02,29,05,50,2.40
2016,02,29,05,51,2.40
2016,02,29,05,52,2.30
2016,02,29,05,53,2.30
2016,02,29,05,54,2.30
2016,02,29,05,55,2.30
2016,02,29,05,56,2.30
2016,02,29,05,57,2.30
2016,02,29,05,58,2.30
2016,02,29,05,59,2.40
2016,02,29,06,00,2.40
2016,02,29,06,01,2.40
2016,02,29,06,02,2.40
2016,02,29,06,03,2.40
2016,02,29,06,04,2.40
2016,02,29,06,05,2.40
2016,02,29,06,06,2.40
2016,02,29,06,07,2.30
2016,02,29,06,08,2.30
2016,02,29,06,09,2.30
2016,02,29,06,10,2.30
2016,02,29,06,11,2.20
2016,02,29,06,12,2.20
2016,02,29,06,13,2.20
2016,02,29,06,14,2.20
2016,02,29,06,15,2.20
2016,02,29,06,16,2.20
2016,02,29,06,17,2.20
2016,02,29,06,18,2.20
2016,02,29,06,19,2.20
2016,02,29,06,20,2.20
2016,02,29,06,21,2.20
2016,02,29,06,22,2.30
2016,02,29,06,23,2.20
2016,02,29,06,24,2.30
2016,02,29,06,25,2.30
2016,02,29,06,26,2.30
2016,02,29,06,27,2.30
2016,02,29,06,28,2.30
2016,02,29,06,29,2.20
2016,02,29,06,30,2.20
2016,02,29,06,31,2.20
2016,02,29,06,32,2.10
2016,02,29,06,33,2.10
2016,02,29,06,34,2.10
2016,02,29,06,35,2.10
2016,02,29,06,36,2.10
2016,02,29,06,37,2.10
2016,02,29,06,38,2.10
2016,02,29,06,39,2.10
2016,02,29,06,40,2.20
2016,02,29,06,41,2.20
2016,02,29,06,42,2.10
2016,02,29,06,43,2.10
2016,02,29,06,44,2.10
2016,02,29,06,45,2.10
2016,02,29,06,46,2.10
2016,02,29,06,47,2.20
2016,02,29,06,48,2.20
2016,02,29,06,49,2.30
2016,02,29,06,50,2.40
2016,02,29,06,51,2.40
2016,02,29,06,52,2.40
2016,02,29,06,53,2.40
2016,02,29,06,54,2.40
2016,02,29,06,55,2.40
2016,02,29,06,56,2.30
2016,02,29,06,57,2.30
2016,02,29,06,58,2.30
2016,02,29,06,59,2.20
2016,02,29,07,00,2.20
2016,02,29,07,01,2.20
2016,02,29,07,02,2.20
2016,02,29,07,03,2.30
2016,02,29,07,04,2.30
2016,02,29,07,05,2.30
2016,02,29,07,06,2.30
2016,02,29,07,07,2.30
2016,02,29,07,08,2.40
2016,02,29,07,09,2.50
2016,02,29,07,10,2.50
2016,02,29,07,11,2.60
2016,02,29,07,12,2.60
2016,02,29,07,13,2.60
2016,02,29,07,14,2.70
2016,02,29,07,15,2.70
2016,02,29,07,16,2.70
2016,02,29,07,17,2.70
2016,02,29,07,18,2.70
2016,02,29,07,19,2.70
2016,02,29,07,20,2.60
2016,02,29,07,21,2.50
2016,02,29,07,22,2.30
2016,02,29,07,23,2.20
2016,02,29,07,24,2.10
2016,02,29,07,25,2.10
2016,02,29,07,26,2.10
2016,02,29,07,27,2.10
2016,02,29,07,28,2.10
2016,02,29,07,29,2.20
2016,02,29,07,30,2.20
2016,02,29,07,31,2.20
2016,02,29,07,32,2.20
2016,02,29,07,33,2.10
2016,02,29,07,34,2.00
2016,02,29,07,35,2.00
2016,02,29,07,36,1.90
2016,02,29,07,37,1.90
2016,02,29,07,38,2.00
2016,02,29,07,39,2.00
2016,02,29,07,40,2.10
2016,02,29,07,41,2.20
2016,02,29,07,42,2.20
2016,02,29,07,43,2.20
2016,02,29,07,44,2.20
2016,02,29,07,45,2.20
2016,02,29,07,46,2.10
2016,02,29,07,47,2.10
2016,02,29,07,48,2.10
2016,02,29,07,49,2.00
2016,02,29,07,50,2.10
2016,02,29,07,51,2.10
2016,02,29,07,52,2.10
2016,02,29,07,53,2.20
2016,02,29,07,54,2.20
2016,02,29,07,55,2.30
2016,02,29,07,56,2.30
2016,02,29,07,57,2.30
2016,02,29,07,58,2.30
2016,02,29,07,59,2.30
2016,02,29,08,00,2.30
2016,02,29,08,01,2.40
2016,02,29,08,02,2.40
2016,02,29,08,03,2.40
2016,02,29,08,04,2.40
2016,02,29,08,05,2.40
2016,02,29,08,06,2.40
2016,02,29,08,07,2.40
2016,02,29,08,08,2.30
2016,02,29,08,09,2.30
2016,02,29,08,10,2.30
2016,02,29,08,11,2.30
2016,02,29,08,12,2.30
2016,02,29,08,13,2.30
2016,02,29,08,14,2.40
2016,02,29,08,15,2.40
2016,02,29,08,16,2.40
2016,02,29,08,17,2.40
2016,02,29,08,18,2.40
2016,02,29,08,19,2.40
2016,02,29,08,20,2.40
2016,02,29,08,21,2.40
2016,02,29,08,22,2.40
2016,02,29,08,23,2.40
2016,02,29,08,24,2.40
2016,02,29,08,25,2.40
2016,02,29,08,26,2.50
2016,02,29,08,27,2.50
2016,02,29,08,28,2.60
2016,02,29,08,29,2.60
2016,02,29,08,30,2.60
2016,02,29,08,31,2.60
2016,02,29,08,32,2.70
2016,02,29,08,33,2.70
2016,02,29,08,34,2.80
2016,02,29,08,35,2.80
2016,02,29,08,36,2.80
2016,02,29,08,37,2.90
2016,02,29,08,38,2.90
2016,02,29,08,39,3.00
2016,02,29,08,40,3.00
2016,02,29,08,41,3.10
2016,02,29,08,42,3.20
2016,02,29,08,43,3.20
2016,02,29,08,44,3.30
2016,02,29,08,45,3.30
2016,02,29,08,46,3.30
2016,02,29,08,47,3.30
2016,02,29,08,48,3.40
2016,02,29,08,49,3.40
2016,02,29,08,50,3.50
2016,02,29,08,51,3.50
2016,02,29,08,52,3.50
2016,02,29,08,53,3.60
2016,02,29,08,54,3.60
2016,02,29,08,55,3.70
2016,02,29,08,56,3.70
2016,02,29,08,57,3.80
2016,02,29,08,58,3.90
2016,02,29,08,59,3.90
2016,02,29,09,00,4.00
2016,02,29,09,01,4.10
2016,02,29,09,02,4.20
2016,02,29,09,03,4.20
2016,02,29,09,04,4.30
2016,02,29,09,05,4.30
2016,02,29,09,06,4.40
2016,02,29,09,07,4.40
2016,02,29,09,08,4.40
2016,02,29,09,09,4.50
2016,02,29,09,10,4.60
2016,02,29,09,11,4.60
2016,02,29,09,12,4.70
2016,02,29,09,13,4.70
2016,02,29,09,14,4.80
2016,02,29,09,15,4.90
2016,02,29,09,16,5.00
2016,02,29,09,17,5.10
2016,02,29,09,18,5.10
2016,02,29,09,19,5.10
2016,02,29,09,20,5.10
2016,02,29,09,21,5.10
2016,02,29,09,22,5.10
2016,02,29,09,23,5.20
2016,02,29,09,24,5.20
2016,02,29,09,25,5.20
2016,02,29,09,26,5.20
2016,02,29,09,27,5.20
2016,02,29,09,28,5.20
2016,02,29,09,29,5.20
2016,02,29,09,30,5.20
2016,02,29,09,31,5.30
2016,02,29,09,32,5.30
2016,02,29,09,33,5.30
2016,02,29,09,34,5.30
2016,02,29,09,35,5.30
2016,02,29,09,36,5.40
2016,02,29,09,37,5.40
2016,02,29,09,38,5.50
2016,02,29,09,39,5.50
2016,02,29,09,40,5.60
2016,02,29,09,41,5.60
2016,02,29,09,42,5.70
2016,02,29,09,43,5.70
2016,02,29,09,44,5.80
2016,02,29,09,45,5.80
2016,02,29,09,46,5.80
2016,02,29,09,47,5.80
2016,02,29,09,48,5.80
2016,02,29,09,49,5.80
2016,02,29,09,50,5.80
2016,02,29,09,51,5.80
2016,02,29,09,52,5.80
2016,02,29,09,53,5.80
2016,02,29,09,54,5.80
2016,02,29,09,55,5.90
2016,02,29,09,56,5.90
2016,02,29,09,57,5.90
2016,02,29,09,58,5.90
2016,02,29,09,59,5.90
2016,02,29,10,00,5.90
2016,02,29,10,01,5.90
2016,02,29,10,02,6.00
2016,02,29,10,03,6.00
2016,02,29,10,04,6.00
2016,02,29,10,05,6.10
2016,02,29,10,06,6.10
2016,02,29,10,07,6.20
2016,02,29,10,08,6.20
2016,02,29,10,09,6.20
2016,02,29,10,10,6.20
2016,02,29,10,11,6.30
2016,02,29,10,12,6.30
2016,02,29,10,13,6.20
2016,02,29,10,14,6.20
2016,02,29,10,15,6.20
2016,02,29,10,16,6.20
2016,02,29,10,17,6.20
2016,02,29,10,18,6.20
2016,02,29,10,19,6.20
2016,02,29,10,20,6.20
2016,02,29,10,21,6.20
2016,02,29,10,22,6.30
2016,02,29,10,23,6.30
2016,02,29,10,24,6.30
2016,02,29,10,25,6.30
2016,02,29,10,26,6.30
2016,02,29,10,27,6.30
2016,02,29,10,28,6.30
2016,02,29,10,29,6.30
2016,02,29,10,30,6.40
2016,02,29,10,31,6.40
2016,02,29,10,32,6.40
2016,02,29,10,33,6.50
2016,02,29,10,34,6.50
2016,02,29,10,35,6.60
2016,02,29,10,36,6.60
2016,02,29,10,37,6.50
2016,02,29,10,38,6.50
2016,02,29,10,39,6.50
2016,02,29,10,40,6.40
2016,02,29,10,41,6.40
2016,02,29,10,42,6.40
2016,02,29,10,43,6.40
2016,02,29,10,44,6.40
2016,02,29,10,45,6.40
2016,02,29,10,46,6.50
2016,02,29,10,47,6.50
2016,02,29,10,48,6.60
2016,02,29,10,49,6.60
2016,02,29,10,50,6.60
2016,02,29,10,51,6.60
2016,02,29,10,52,6.60
2016,02,29,10,53,6.60
2016,02,29,10,54,6.60
2016,02,29,10,55,6.70
2016,02,29,10,56,6.70
2016,02,29,10,57,6.70
2016,02,29,10,58,6.80
2016,02,29,10,59,6.80
2016,02,29,11,00,6.80
2016,02,29,11,01,6.80
2016,02,29,11,02,6.80
2016,02,29,11,03,6.80
2016,02,29,11,04,6.80
2016,02,29,11,05,6.90
2016,02,29,11,06,6.90
2016,02,29,11,07,7.00
2016,02,29,11,08,7.00
2016,02,29,11,09,7.10
2016,02,29,11,10,7.20
2016,02,29,11,11,7.20
2016,02,29,11,12,7.30
2016,02,29,11,13,7.30
2016,02,29,11,14,7.40
2016,02,29,11,15,7.40
2016,02,29,11,16,7.40
2016,02,29,11,17,7.30
2016,02,29,11,18,7.30
2016,02,29,11,19,7.30
2016,02,29,11,20,7.20
2016,02,29,11,21,7.10
2016,02,29,11,22,7.00
2016,02,29,11,23,7.00
2016,02,29,11,24,6.90
2016,02,29,11,25,6.90
2016,02,29,11,26,6.90
2016,02,29,11,27,7.00
2016,02,29,11,28,6.90
2016,02,29,11,29,6.90
2016,02,29,11,30,6.90
2016,02,29,11,31,6.90
2016,02,29,11,32,6.90
2016,02,29,11,33,6.90
2016,02,29,11,34,6.90
2016,02,29,11,35,6.90
2016,02,29,11,36,6.90
2016,02,29,11,37,6.90
2016,02,29,11,38,6.90
2016,02,29,11,39,6.90
2016,02,29,11,40,6.80
2016,02,29,11,41,6.80
2016,02,29,11,42,6.80
2016,02,29,11,43,6.80
2016,02,29,11,44,6.70
2016,02,29,11,45,6.70
2016,02,29,11,46,6.70
2016,02,29,11,47,6.70
2016,02,29,11,48,6.70
2016,02,29,11,49,6.70
2016,02,29,11,50,6.80
2016,02,29,11,51,6.80
2016,02,29,11,52,6.80
2016,02,29,11,53,6.70
2016,02,29,11,54,6.70
2016,02,29,11,55,6.70
2016,02,29,11,56,6.60
2016,02,29,11,57,6.60
2016,02,29,11,58,6.70
2016,02,29,11,59,6.60
2016,02,29,12,00,6.60
2016,02,29,12,01,6.60
2016,02,29,12,02,6.60
2016,02,29,12,03,6.60
2016,02,29,12,04,6.60
2016,02,29,12,05,6.60
2016,02,29,12,06,6.60
2016,02,29,12,07,6.60
2016,02,29,12,08,6.60
2016,02,29,12,09,6.60
2016,02,29,12,10,6.60
2016,02,29,12,11,6.70
2016,02,29,12,12,6.70
2016,02,29,12,13,6.70
2016,02,29,12,14,6.70
2016,02,29,12,15,6.70
2016,02,29,12,16,6.70
2016,02,29,12,17,6.70
2016,02,29,12,18,6.80
2016,02,29,12,19,6.80
2016,02,29,12,20,6.70
2016,02,29,12,21,6.80
2016,02,29,12,22,6.80
2016,02,29,12,23,6.80
2016,02,29,12,24,6.80
2016,02,29,12,25,6.80
2016,02,29,12,26,6.80
2016,02,29,12,27,6.80
2016,02,29,12,28,6.90
2016,02,29,12,29,6.90
2016,02,29,12,30,6.90
2016,02,29,12,31,7.00
2016,02,29,12,32,7.00
2016,02,29,12,33,7.00
2016,02,29,12,34,7.10
2016,02,29,12,35,7.10
2016,02,29,12,36,7.10
2016,02,29,12,37,7.10
2016,02,29,12,38,7.20
2016,02,29,12,39,7.20
2016,02,29,12,40,7.30
2016,02,29,12,41,7.30
2016,02,29,12,42,7.30
2016,02,29,12,43,7.30
2016,02,29,12,44,7.30
2016,02,29,12,45,7.30
2016,02,29,12,46,7.40
2016,02,29,12,47,7.40
2016,02,29,12,48,7.40
2016,02,29,12,49,7.40
2016,02,29,12,50,7.30
2016,02,29,12,51,7.30
2016,02,29,12,52,7.30
2016,02,29,12,53,7.30
2016,02,29,12,54,7.30
2016,02,29,12,55,7.30
2016,02,29,12,56,7.30
2016,02,29,12,57,7.20
2016,02,29,12,58,7.20
2016,02,29,12,59,7.30
2016,02,29,13,00,7.30
2016,02,29,13,01,7.30
2016,02,29,13,02,7.30
2016,02,29,13,03,7.30
2016,02,29,13,04,7.30
2016,02,29,13,05,7.30
2016,02,29,13,06,7.40
2016,02,29,13,07,7.40
2016,02,29,13,08,7.40
2016,02,29,13,09,7.50
2016,02,29,13,10,7.50
2016,02,29,13,11,7.50
2016,02,29,13,12,7.50
2016,02,29,13,13,7.50
2016,02,29,13,14,7.60
2016,02,29,13,15,7.60
2016,02,29,13,16,7.60
2016,02,29,13,17,7.60
2016,02,29,13,18,7.70
2016,02,29,13,19,7.70
2016,02,29,13,20,7.70
2016,02,29,13,21,7.60
2016,02,29,13,22,7.60
2016,02,29,13,23,7.60
2016,02,29,13,24,7.60
2016,02,29,13,25,7.60
2016,02,29,13,26,7.70
2016,02,29,13,27,7.70
2016,02,29,13,28,7.70
2016,02,29,13,29,7.70
2016,02,29,13,30,7.70
2016,02,29,13,31,7.70
2016,02,29,13,32,7.70
2016,02,29,13,33,7.70
2016,02,29,13,34,7.60
2016,02,29,13,35,7.60
2016,02,29,13,36,7.60
2016,02,29,13,37,7.60
2016,02,29,13,38,7.60
2016,02,29,13,39,7.70
2016,02,29,13,40,7.70
2016,02,29,13,41,7.60
2016,02,29,13,42,7.60
2016,02,29,13,43,7.60
2016,02,29,13,44,7.60
2016,02,29,13,45,7.60
2016,02,29,13,46,7.70
2016,02,29,13,47,7.70
2016,02,29,13,48,7.70
2016,02,29,13,49,7.60
2016,02,29,13,50,7.60
2016,02,29,13,51,7.60
2016,02,29,13,52,7.60
2016,02,29,13,53,7.60
2016,02,29,13,54,7.60
2016,02,29,13,55,7.60
2016,02,29,13,56,7.60
2016,02,29,13,57,7.60
2016,02,29,13,58,7.60
2016,02,29,13,59,7.60
2016,02,29,14,00,7.60
2016,02,29,14,01,7.60
2016,02,29,14,02,7.50
2016,02,29,14,03,7.50
2016,02,29,14,04,7.50
2016,02,29,14,05,7.60
2016,02,29,14,06,7.60
2016,02,29,14,07,7.60
2016,02,29,14,08,7.60
2016,02,29,14,09,7.50
2016,02,29,14,10,7.50
2016,02,29,14,11,7.50
2016,02,29,14,12,7.50
2016,02,29,14,13,7.50
2016,02,29,14,14,7.50
2016,02,29,14,15,7.50
2016,02,29,14,16,7.60
2016,02,29,14,17,7.60
2016,02,29,14,18,7.60
2016,02,29,14,19,7.60
2016,02,29,14,20,7.50
2016,02,29,14,21,7.50
2016,02,29,14,22,7.50
2016,02,29,14,23,7.50
2016,02,29,14,24,7.40
2016,02,29,14,25,7.40
2016,02,29,14,26,7.40
2016,02,29,14,27,7.40
2016,02,29,14,28,7.40
2016,02,29,14,29,7.50
2016,02,29,14,30,7.40
2016,02,29,14,31,7.50
2016,02,29,14,32,7.50
2016,02,29,14,33,7.50
2016,02,29,14,34,7.60
2016,02,29,14,35,7.60
2016,02,29,14,36,7.60
2016,02,29,14,37,7.60
2016,02,29,14,38,7.60
2016,02,29,14,39,7.60
2016,02,29,14,40,7.60
2016,02,29,14,41,7.60
2016,02,29,14,42,7.70
2016,02,29,14,43,7.70
2016,02,29,14,44,7.60
2016,02,29,14,45,7.60
2016,02,29,14,46,7.60
2016,02,29,14,47,7.60
2016,02,29,14,48,7.60
2016,02,29,14,49,7.60
2016,02,29,14,50,7.60
2016,02,29,14,51,7.60
2016,02,29,14,52,7.60
2016,02,29,14,53,7.50
2016,02,29,14,54,7.50
2016,02,29,14,55,7.50
2016,02,29,14,56,7.50
2016,02,29,14,57,7.50
2016,02,29,14,58,7.50
2016,02,29,14,59,7.50
2016,02,29,15,00,7.50
2016,02,29,15,01,7.50
2016,02,29,15,02,7.50
2016,02,29,15,03,7.50
2016,02,29,15,04,7.50
2016,02,29,15,05,7.50
2016,02,29,15,06,7.50
2016,02,29,15,07,7.50
2016,02,29,15,08,7.50
2016,02,29,15,09,7.50
2016,02,29,15,10,7.50
2016,02,29,15,11,7.50
2016,02,29,15,12,7.50
2016,02,29,15,13,7.40
2016,02,29,15,14,7.40
2016,02,29,15,15,7.40
2016,02,29,15,16,7.30
2016,02,29,15,17,7.30
2016,02,29,15,18,7.30
2016,02,29,15,19,7.30
2016,02,29,15,20,7.20
2016,02,29,15,21,7.20
2016,02,29,15,22,7.20
2016,02,29,15,23,7.20
2016,02,29,15,24,7.20
2016,02,29,15,25,7.20
2016,02,29,15,26,7.20
2016,02,29,15,27,7.20
2016,02,29,15,28,7.20
2016,02,29,15,29,7.20
2016,02,29,15,30,7.20
2016,02,29,15,31,7.20
2016,02,29,15,32,7.20
2016,02,29,15,33,7.20
2016,02,29,15,34,7.20
2016,02,29,15,35,7.20
2016,02,29,15,36,7.20
2016,02,29,15,37,7.20
2016,02,29,15,38,7.10
2016,02,29,15,39,7.10
2016,02,29,15,40,7.10
2016,02,29,15,41,7.00
2016,02,29,15,42,7.00
2016,02,29,15,43,7.00
2016,02,29,15,44,7.00
2016,02,29,15,45,6.90
2016,02,29,15,46,6.90
2016,02,29,15,47,6.90
2016,02,29,15,48,6.90
2016,02,29,15,49,6.80
2016,02,29,15,50,6.80
2016,02,29,15,51,6.80
2016,02,29,15,52,6.80
2016,02,29,15,53,6.80
2016,02,29,15,54,6.80
2016,02,29,15,55,6.80
2016,02,29,15,56,6.80
2016,02,29,15,57,6.80
2016,02,29,15,58,6.80
2016,02,29,15,59,6.70
2016,02,29,16,00,6.70
2016,02,29,16,01,6.70
2016,02,29,16,02,6.70
2016,02,29,16,03,6.70
2016,02,29,16,04,6.70
2016,02,29,16,05,6.70
2016,02,29,16,06,6.70
2016,02,29,16,07,6.70
2016,02,29,16,08,6.70
2016,02,29,16,09,6.70
2016,02,29,16,10,6.70
2016,02,29,16,11,6.70
2016,02,29,16,12,6.70
2016,02,29,16,13,6.70
2016,02,29,16,14,6.70
2016,02,29,16,15,6.70
2016,02,29,16,16,6.70
2016,02,29,16,17,6.70
2016,02,29,16,18,6.70
2016,02,29,16,19,6.70
2016,02,29,16,20,6.70
2016,02,29,16,21,6.70
2016,02,29,16,22,6.70
2016,02,29,16,23,6.70
2016,02,29,16,24,6.70
2016,02,29,16,25,6.70
2016,02,29,16,26,6.70
2016,02,29,16,27,6.70
2016,02,29,16,28,6.70
2016,02,29,16,29,6.70
2016,02,29,16,30,6.60
2016,02,29,16,31,6.60
2016,02,29,16,32,6.60
2016,02,29,16,33,6.60
2016,02,29,16,34,6.60
2016,02,29,16,35,6.60
2016,02,29,16,36,6.60
2016,02,29,16,37,6.60
2016,02,29,16,38,6.60
2016,02,29,16,39,6.60
2016,02,29,16,40,6.60
2016,02,29,16,41,6.60
2016,02,29,16,42,6.60
2016,02,29,16,43,6.60
2016,02,29,16,44,6.60
2016,02,29,16,45,6.60
2016,02,29,16,46,6.60
2016,02,29,16,47,6.60
2016,02,29,16,48,6.60
2016,02,29,16,49,6.60
2016,02,29,16,50,6.60
2016,02,29,16,51,6.60
2016,02,29,16,52,6.60
2016,02,29,16,53,6.60
2016,02,29,16,54,6.60
2016,02,29,16,55,6.60
2016,02,29,16,56,6.60
2016,02,29,16,57,6.60
2016,02,29,16,58,6.60
2016,02,29,16,59,6.60
2016,02,29,17,00,6.60
2016,02,29,17,01,6.60
2016,02,29,17,02,6.60
2016,02,29,17,03,6.60
2016,02,29,17,04,6.60
2016,02,29,17,05,6.50
2016,02,29,17,06,6.50
2016,02,29,17,07,6.50
2016,02,29,17,08,6.50
2016,02,29,17,09,6.50
2016,02,29,17,10,6.50
2016,02,29,17,11,6.50
2016,02,29,17,12,6.50
2016,02,29,17,13,6.50
2016,02,29,17,14,6.50
2016,02,29,17,15,6.50
2016,02,29,17,16,6.50
2016,02,29,17,17,6.50
2016,02,29,17,18,6.50
2016,02,29,17,19,6.50
2016,02,29,17,20,6.50
2016,02,29,17,21,6.50
2016,02,29,17,22,6.50
2016,02,29,17,23,6.50
2016,02,29,17,24,6.50
2016,02,29,17,25,6.50
2016,02,29,17,26,6.40
2016,02,29,17,27,6.40
2016,02,29,17,28,6.40
2016,02,29,17,29,6.40
2016,02,29,17,30,6.40
2016,02,29,17,31,6.40
2016,02,29,17,32,6.40
2016,02,29,17,33,6.40
2016,02,29,17,34,6.40
2016,02,29,17,35,6.40
2016,02,29,17,36,6.40
2016,02,29,17,37,6.30
2016,02,29,17,38,6.30
2016,02,29,17,39,6.30
2016,02,29,17,40,6.30
2016,02,29,17,41,6.30
2016,02,29,17,42,6.30
2016,02,29,17,43,6.30
2016,02,29,17,44,6.30
2016,02,29,17,45,6.30
2016,02,29,17,46,6.30
2016,02,29,17,47,6.30
2016,02,29,17,48,6.30
2016,02,29,17,49,6.30
2016,02,29,17,50,6.30
2016,02,29,17,51,6.30
2016,02,29,17,52,6.30
2016,02,29,17,53,6.20
2016,02,29,17,54,6.30
2016,02,29,17,55,6.20
2016,02,29,17,56,6.30
2016,02,29,17,57,6.30
2016,02,29,17,58,6.30
2016,02,29,17,59,6.20
2016,02,29,18,00,6.30
2016,02,29,18,01,6.20
2016,02,29,18,02,6.20
2016,02,29,18,03,6.20
2016,02,29,18,04,6.20
2016,02,29,18,05,6.20
2016,02,29,18,06,6.20